Date,TemperatureHighF,TemperatureAvgF,TemperatureLowF,DewpointHighF,DewpointAvgF,DewpointLowF,HumidityHigh,HumidityAvg,HumidityLow,PressureMaxIn,PressureMinIn,WindSpeedMaxMPH,WindSpeedAvgMPH,GustSpeedMaxMPH,PrecipitationSumIn
2013-1-13,24,15,9,1,-2,-7,61,48,26,30.34,30.13,11,5,14,0.00
2013-1-14,33,18,7,10,3,-2,71,55,26,30.46,30.34,4,1,8,0.00
2013-1-15,40,25,14,14,10,5,69,54,28,30.35,30.06,4,1,7,0.00
2013-1-16,54,38,23,33,25,13,77,60,43,30.22,29.93,9,3,12,0.00
2013-1-17,39,30,22,30,24,18,94,80,52,30.46,30.25,5,1,8,0.00
2013-1-18,57,38,27,32,28,24,93,70,36,30.29,29.91,7,2,11,0.00
2013-1-19,56,43,23,34,24,6,90,50,35,30.35,29.88,15,7,32,13.10
2013-1-20,23,23,22,9,9,8,55,55,54,30.36,30.34,5,4,9,0.00
2013-2-9,52,49,41,36,35,33,73,59,54,29.92,29.89,7,2,11,0.21
2013-2-10,49,37,32,44,29,20,99,75,59,29.86,29.40,23,10,37,0.19
2013-2-11,39,32,24,24,20,16,73,60,51,30.24,29.85,14,6,36,0.25
2013-2-12,51,39,21,27,21,17,87,51,28,30.24,30.00,12,2,19,0.25
2013-2-13,58,44,23,30,25,16,81,51,27,30.01,29.83,11,3,20,0.25
2013-2-14,46,39,26,31,26,8,85,61,34,30.34,29.88,11,6,24,0.00
2013-2-15,34,25,17,22,15,5,84,67,32,30.44,30.35,9,2,13,0.00
2013-2-16,33,27,9,22,16,2,81,63,51,30.42,30.16,4,2,9,0.02
2013-2-17,57,39,25,33,25,16,72,59,37,30.11,29.68,6,2,12,0.00
2013-2-18,45,30,22,32,19,9,88,63,46,30.15,29.65,20,9,26,0.01
2013-2-19,30,18,10,10,-4,-12,59,39,19,30.46,30.15,20,7,26,0.00
2013-2-20,27,17,5,3,-4,-9,53,40,25,30.48,30.30,11,4,14,0.00
2013-2-21,26,23,22,19,12,3,86,66,41,30.34,29.95,14,6,21,0.00
2013-2-22,27,21,11,19,11,3,85,64,52,30.13,29.95,11,5,17,0.00
2013-2-23,43,24,5,24,11,-3,75,60,47,30.12,29.97,5,2,9,0.01
2013-2-24,52,36,18,28,24,12,84,64,33,30.17,30.00,7,2,11,0.00
2013-2-25,38,32,28,27,24,21,81,73,59,30.19,30.05,11,4,14,0.00
2013-2-26,33,30,27,28,25,23,87,81,75,30.01,29.88,11,5,14,0.00
2013-2-27,40,32,26,25,22,17,79,67,47,30.17,29.98,16,8,25,0.00
2013-2-28,34,30,27,23,20,16,74,67,60,30.32,30.18,12,6,18,0.00
2013-3-1,32,28,24,19,15,11,70,58,50,30.45,30.31,10,4,21,0.00
2013-3-2,28,2,0,11,11,11,57,4,51,30.44,30.34,4,0,8,0.00
2013-3-3,43,36,26,28,24,18,74,62,54,30.20,29.86,10,4,16,0.00
2013-3-4,47,40,32,30,27,22,75,62,51,30.12,29.80,14,4,20,0.00
2013-3-5,35,29,26,28,16,12,76,57,51,30.46,30.12,22,11,30,0.01
2013-3-6,45,34,22,23,19,12,70,54,37,30.52,30.35,7,2,11,0.01
2013-3-7,28,26,24,18,16,16,70,67,63,30.36,30.34,6,3,9,0.00
2013-3-8,56,43,32,39,31,23,89,64,46,30.28,30.02,8,4,14,0.14
2013-3-9,54,49,41,50,46,39,96,91,83,30.01,29.68,9,2,14,0.09
2013-3-10,37,30,24,34,27,20,94,90,85,30.03,29.77,11,2,17,0.12
2013-3-11,38,27,20,20,16,12,87,62,43,30.10,29.97,10,2,12,0.02
2013-3-12,36,29,17,22,18,10,84,63,53,30.42,30.10,18,6,24,0.01
2013-3-13,26,25,23,15,14,14,68,65,63,30.44,30.41,8,4,11,0.00
2013-3-14,64,42,32,39,31,20,88,67,37,30.33,30.15,6,2,9,0.00
2013-3-15,66,48,34,45,38,31,97,74,41,30.18,29.82,10,2,15,0.00
2013-3-16,40,34,31,38,26,22,92,73,59,30.28,29.94,14,5,26,0.00
2013-3-17,51,36,24,34,24,17,86,64,44,30.25,29.86,8,4,11,0.00
2013-3-18,40,35,29,34,19,5,94,56,26,30.14,29.85,17,7,23,0.20
2013-3-19,54,35,23,24,13,8,58,42,21,30.39,30.15,14,4,24,0.00
2013-3-20,39,27,17,10,4,-7,56,39,20,30.48,30.21,11,4,16,0.00
2013-3-21,25,23,21,10,10,8,62,57,47,30.21,30.13,6,3,9,0.00
2013-3-22,51,36,24,34,25,17,92,66,44,29.81,29.47,8,4,11,0.01
2013-3-23,40,35,29,34,17,5,94,52,26,29.78,29.47,17,7,23,0.19
2013-3-24,54,35,22,24,13,7,58,42,21,30.05,29.78,14,4,24,0.00
2013-3-25,39,27,17,10,2,-7,56,37,20,30.09,29.80,11,5,16,0.00
2013-3-26,25,23,21,10,10,9,62,58,52,29.80,29.74,5,3,8,0.00
2013-3-27,45,42,39,31,31,29,71,65,55,29.96,29.93,3,1,4,0.00
2013-3-28,65,50,28,35,31,24,88,51,26,29.97,29.86,6,2,103,0.00
2013-3-29,75,59,33,42,33,21,98,43,15,29.95,29.77,11,2,14,0.00
2013-3-30,71,57,47,54,43,29,99,64,23,29.81,29.62,11,3,15,0.24
2013-3-31,62,53,35,41,27,18,98,41,19,29.85,29.67,34,7,43,0.05
2013-4-1,45,37,28,34,15,7,98,43,22,30.05,29.85,11,4,17,0.06
2013-4-2,60,46,22,28,22,16,87,41,23,30.05,29.95,7,2,10,0.06
2013-4-3,61,47,31,27,25,22,73,45,23,30.08,29.93,7,2,10,0.00
2013-4-4,69,56,30,40,35,26,87,49,33,29.94,29.76,11,4,14,0.00
2013-4-5,70,60,34,41,37,31,87,46,32,29.89,29.46,9,4,14,0.00
2013-4-6,60,58,53,49,43,40,72,58,49,29.46,29.33,14,4,21,0.00
2013-4-7,78,57,44,55,45,40,90,66,25,29.58,29.37,8,2,10,0.01
2013-4-8,68,62,47,62,59,47,99,88,74,29.45,29.35,4,2,7,0.05
2013-4-9,66,42,36,62,41,35,99,97,86,29.68,29.41,15,7,21,0.27
2013-4-10,39,37,34,39,37,33,99,98,97,29.93,29.52,10,4,21,0.91
2013-4-11,37,35,32,36,31,29,95,87,82,29.82,29.75,14,5,21,0.00
2013-4-12,44,38,32,32,30,26,89,72,59,30.11,29.82,15,6,21,0.01
2013-4-13,57,48,26,41,36,24,93,64,52,30.12,29.81,12,4,16,0.00
2013-4-14,71,60,50,53,44,34,75,56,40,29.77,29.45,18,6,27,0.08
2013-4-15,50,42,36,35,30,23,77,61,51,30.17,29.77,12,5,18,0.08
2013-4-16,56,47,36,37,32,25,78,56,34,30.33,30.17,15,6,20,0.08
2013-4-17,48,43,41,44,42,37,99,98,66,30.24,29.71,24,5,28,0.97
2013-4-18,38,35,33,38,32,28,99,88,77,30.00,29.78,19,9,28,0.43
2013-4-19,50,41,30,28,22,18,78,49,29,30.20,29.94,17,8,24,0.00
2013-4-20,50,43,25,32,24,17,83,48,32,30.35,30.20,10,3,15,0.00
2013-4-21,71,58,45,53,47,31,98,72,33,30.24,30.09,17,3,24,0.52
2013-4-22,55,45,34,54,45,32,99,98,94,30.26,30.04,15,4,24,1.50
2013-4-23,44,37,30,31,25,21,88,63,49,30.33,30.23,15,4,21,0.01
2013-4-24,64,48,25,42,28,18,87,51,18,30.29,30.12,17,5,24,0.00
2013-4-25,75,62,33,40,33,26,99,37,17,30.35,30.12,11,3,18,0.00
2013-4-26,76,60,51,53,46,40,93,61,42,30.29,30.12,7,2,10,0.00
2013-4-27,73,58,45,53,50,44,99,78,46,30.30,30.04,4,1,5,0.00
2013-4-28,86,66,46,57,52,46,99,66,30,30.05,29.80,5,2,11,0.00
2013-4-29,90,76,58,62,57,51,97,56,28,29.85,29.68,7,2,9,0.00
2013-4-30,80,72,61,59,53,46,64,53,42,29.97,29.61,12,4,16,0.02
2013-5-1,60,40,34,50,37,34,99,92,64,30.47,29.99,14,8,24,0.81
2013-5-2,51,44,35,35,32,27,98,62,48,30.60,30.45,17,6,24,1.18
2013-5-3,46,43,34,36,32,27,85,66,56,30.37,30.13,13,6,19,0.00
2013-5-4,45,43,38,44,42,35,99,96,85,30.22,30.09,12,5,17,0.04
2013-5-5,56,53,43,51,49,43,98,88,82,30.26,30.19,8,3,10,0.04
2013-5-6,73,58,49,57,52,48,99,82,53,30.25,30.13,7,2,11,0.04
2013-5-7,80,70,50,59,55,50,99,59,40,30.18,30.04,8,2,11,0.00
2013-5-8,74,67,58,62,59,56,96,76,61,30.07,29.99,6,2,10,0.00
2013-5-9,74,63,57,62,59,56,99,88,56,30.08,29.95,11,4,17,0.65
2013-5-10,76,63,51,58,50,45,97,66,36,30.19,30.08,11,3,13,0.65
2013-5-11,65,59,43,48,24,18,89,28,18,30.34,30.14,19,6,27,0.00
2013-5-12,73,64,43,32,24,15,58,23,12,30.36,30.20,6,2,9,0.00
2013-5-13,86,74,47,53,47,30,76,40,24,30.20,29.95,7,2,19,0.00
2013-5-14,102,90,69,64,54,41,85,33,13,29.96,29.74,8,2,14,0.00
2013-5-15,87,78,65,60,45,35,64,32,22,30.03,29.88,14,6,20,0.00
2013-5-16,90,80,64,69,63,47,76,58,41,29.98,29.86,7,2,11,0.00
2013-5-17,92,80,65,67,63,60,91,58,36,30.01,29.92,7,2,11,0.00
2013-5-18,90,82,63,70,66,61,94,62,44,30.00,29.80,9,3,17,0.00
2013-5-19,82,68,62,71,64,58,99,90,63,29.94,29.58,11,2,23,0.60
2013-5-20,81,73,60,62,57,51,94,59,43,29.77,29.66,11,3,18,0.61
2013-5-21,68,62,56,59,52,48,92,73,56,29.83,29.70,14,5,21,0.00
2013-5-22,64,58,54,56,52,50,92,79,66,30.06,29.83,13,6,20,0.00
2013-5-23,78,67,53,55,49,42,98,57,29,30.29,30.06,12,4,17,0.00
2013-5-24,78,70,57,55,51,47,74,52,40,30.39,30.13,10,3,17,0.00
2013-5-25,84,74,60,72,67,50,99,80,56,30.22,30.06,13,4,17,0.26
2013-5-26,90,78,67,74,70,64,92,78,55,30.12,29.94,11,4,17,0.26
2013-5-27,82,69,60,69,64,60,99,86,62,30.01,29.79,17,4,26,1.34
2013-5-28,86,76,64,69,66,61,99,73,46,29.84,29.75,11,2,13,1.38
2013-5-29,78,70,64,75,68,63,99,93,83,29.85,29.66,8,2,16,0.64
2013-5-30,80,69,62,67,64,57,99,83,62,29.73,29.63,8,2,16,0.32
2013-5-31,83,75,62,58,52,45,85,46,28,29.82,29.72,8,3,17,0.32
2013-6-1,66,60,57,58,54,48,97,80,55,30.11,29.81,15,7,23,0.01
2013-6-2,78,68,55,52,49,45,82,53,36,30.16,30.10,12,2,18,0.01
2013-6-3,80,71,55,57,53,49,86,54,36,30.13,29.94,11,3,18,0.01
2013-6-4,74,68,58,68,65,57,99,89,74,30.08,29.98,11,3,17,0.29
2013-6-5,81,68,57,66,54,49,99,62,35,30.14,30.05,10,3,14,0.02
2013-6-6,76,69,53,60,55,50,97,61,43,30.10,30.04,11,3,13,0.00
2013-6-7,80,70,59,58,54,49,89,58,36,30.15,30.00,7,2,10,0.00
2013-6-8,64,62,60,63,56,52,97,82,75,30.01,29.81,4,1,8,0.81
2013-6-9,72,65,62,66,62,60,98,88,72,29.93,29.83,14,5,21,0.21
2013-6-10,84,73,59,70,65,59,99,78,57,30.01,29.88,9,2,14,0.21
2013-6-11,96,82,70,76,71,65,91,72,43,29.93,29.81,7,2,11,0.21
2013-6-12,92,83,67,75,68,57,79,61,45,30.11,29.81,17,6,27,0.21
2013-6-13,83,74,63,66,60,55,97,65,41,30.20,30.06,7,2,9,0.01
2013-6-14,91,77,63,74,69,62,99,77,54,30.14,29.89,17,4,24,0.89
2013-6-15,88,77,66,73,69,63,99,77,48,30.06,29.94,9,2,14,0.02
2013-6-16,94,84,73,74,66,58,89,56,36,30.09,30.03,8,2,11,0.00
2013-6-17,95,86,71,69,61,55,89,45,31,30.12,30.04,9,2,12,0.00
2013-6-18,93,77,64,69,63,52,99,67,30,30.18,30.07,5,1,9,0.25
2013-6-19,92,83,67,71,67,62,87,59,43,30.12,30.00,7,2,14,0.25
2013-6-20,94,86,72,77,74,69,91,66,49,30.03,29.92,11,3,19,0.25
2013-6-21,98,90,80,79,74,72,82,62,46,29.98,29.89,8,3,16,0.00
2013-6-22,96,88,81,76,70,66,74,55,46,29.95,29.90,7,2,11,0.00
2013-6-23,87,77,66,75,71,66,99,83,61,30.02,29.87,8,2,12,0.48
2013-6-24,87,78,65,77,73,65,99,85,66,30.13,29.81,17,2,29,0.31
2013-6-25,90,83,70,79,74,65,98,73,56,29.93,29.78,8,2,12,0.00
2013-6-26,99,86,72,76,68,62,99,59,32,30.00,29.77,11,3,15,0.00
2013-6-27,94,75,68,75,70,66,99,86,48,30.11,29.99,7,1,10,0.17
2013-6-28,90,80,66,69,61,54,99,57,33,30.08,29.99,17,4,22,0.00
2013-6-29,85,75,67,64,59,56,79,58,43,30.05,29.99,15,4,23,0.00
2013-6-30,84,71,61,64,58,52,94,66,38,30.21,30.05,11,2,14,0.00
2013-7-1,90,74,59,60,56,53,89,57,30,30.29,30.20,9,2,13,0.00
2013-7-2,88,77,59,63,58,54,92,54,35,30.26,30.15,10,2,14,0.00
2013-7-3,87,79,63,68,62,55,99,56,36,30.17,30.06,5,1,8,0.00
2013-7-4,91,81,66,64,61,57,81,52,34,30.09,30.00,8,2,12,0.00
2013-7-5,89,78,67,69,64,59,80,63,48,30.03,29.94,4,2,8,0.00
2013-7-6,93,84,70,72,69,64,82,63,47,29.98,29.92,8,2,13,0.00
2013-7-7,99,91,75,76,71,68,83,53,40,30.00,29.92,7,2,11,0.00
2013-7-8,93,84,78,78,76,71,84,77,55,30.07,30.00,4,2,8,0.00
2013-7-9,104,90,77,80,76,72,88,66,45,30.05,29.98,6,2,9,0.00
2013-7-10,84,78,75,76,72,71,85,83,77,30.14,30.03,4,2,8,0.00
2013-7-11,92,82,64,67,64,60,95,57,42,30.20,30.07,8,2,14,0.00
2013-7-12,95,81,68,73,68,62,84,64,49,30.11,30.02,7,3,14,0.00
2013-7-13,90,83,74,78,72,64,79,70,62,30.09,30.03,9,3,14,0.00
2013-7-14,92,86,72,71,65,61,81,51,41,30.24,30.08,11,3,18,0.00
2013-7-15,93,86,72,75,71,66,84,63,49,30.30,30.21,8,2,12,0.00
2013-7-16,96,88,78,73,70,64,84,55,44,30.36,30.25,8,1,10,0.00
2013-7-17,98,90,79,75,73,69,82,58,44,30.40,30.26,6,2,8,0.00
2013-7-18,88,82,74,74,73,71,92,75,64,30.26,30.22,3,1,5,0.00
2013-7-19,101,86,76,74,68,62,77,57,28,30.05,29.98,4,1,8,0.01
2013-7-20,94,81,67,68,65,61,86,59,37,30.10,29.96,5,2,9,0.00
2013-7-21,74,74,73,70,69,66,89,86,78,30.02,29.98,1,0,2,0.00
2013-7-22,81,80,79,67,67,67,67,65,62,29.95,29.94,5,5,7,0.00
2013-7-23,88,78,67,70,66,63,99,69,48,30.13,29.93,11,4,17,0.04
2013-7-24,90,80,67,67,64,60,96,58,41,30.19,30.05,8,2,12,0.04
2013-7-25,85,78,70,72,68,62,94,70,54,30.15,30.08,7,2,10,0.01
2013-7-26,84,76,63,70,58,51,98,56,37,30.21,30.11,14,4,21,0.02
2013-7-27,81,73,60,56,49,45,81,44,32,30.21,30.10,11,3,17,0.00
2013-7-28,86,68,50,58,52,44,99,61,27,30.17,30.10,6,2,9,0.00
2013-7-29,69,65,60,66,63,54,99,93,72,30.17,30.10,8,2,12,0.08
2013-7-30,66,66,66,65,65,65,99,99,99,30.15,30.14,2,2,4,0.08
2013-7-31,90,81,63,72,68,62,99,67,45,30.24,30.14,4,1,8,0.00
2013-8-1,71,71,71,68,68,68,91,91,91,30.17,30.17,0,0,0,0.00
2013-8-2,89,77,67,72,68,63,99,74,53,30.12,29.94,12,4,17,0.00
2013-8-3,85,77,68,64,61,59,86,60,48,30.27,30.12,8,3,11,0.00
2013-8-4,85,77,62,70,64,58,88,66,51,30.27,30.13,9,3,14,0.00
2013-8-5,70,70,69,69,69,68,99,97,93,30.12,30.08,2,1,3,0.00
2013-8-6,93,80,71,76,74,67,99,82,51,30.03,29.90,6,1,9,0.00
2013-8-7,92,83,73,76,65,59,89,56,37,30.08,29.95,11,3,14,0.00
2013-9-16,90,80,68,65,59,54,72,50,34,30.05,29.95,13,5,19,0.00
2013-9-17,84,73,61,62,60,56,94,64,45,30.08,29.95,10,4,17,0.00
2013-9-18,84,71,59,63,57,53,88,64,39,30.22,30.08,6,2,13,0.00
2013-9-19,90,74,59,60,57,54,92,59,30,30.25,30.16,7,2,11,0.00
2013-9-20,87,73,59,63,59,56,99,66,38,30.22,30.10,8,1,9,0.00
2013-9-21,87,75,61,66,60,57,99,63,37,30.13,30.02,4,1,6,0.00
2013-9-22,90,78,64,64,56,52,76,50,34,30.06,29.87,8,3,18,1.70
2013-9-23,83,71,55,58,54,49,93,57,34,29.92,29.79,10,4,21,0.00
2013-9-24,76,69,62,63,60,52,89,74,57,29.95,29.82,11,3,15,0.00
2013-9-26,91,74,62,64,62,59,98,69,37,29.89,29.81,8,4,16,0.00
2013-9-27,93,78,70,65,63,60,81,62,35,29.91,29.83,7,3,13,0.00
2013-9-28,74,65,50,67,55,42,99,73,35,30.11,29.74,11,4,14,0.00
2013-9-29,83,62,46,54,47,39,99,65,22,30.11,29.94,7,1,11,0.00
2013-9-30,87,67,53,55,52,50,94,64,29,29.96,29.77,4,2,10,0.00
2013-10-1,90,68,55,58,55,52,99,66,28,30.01,29.84,5,1,7,0.00
2013-10-2,91,72,59,69,63,53,99,76,41,30.02,29.88,4,1,8,0.00
2013-10-3,65,63,61,65,62,61,99,98,97,29.91,29.79,21,12,29,0.00
2013-10-4,88,71,56,76,64,43,99,79,56,29.95,29.70,14,6,29,0.00
2013-10-5,56,49,44,44,37,35,89,64,49,29.98,29.86,14,6,24,0.00
2013-10-6,51,49,44,50,48,40,99,97,87,30.03,29.86,13,4,19,0.00
2013-10-7,81,58,40,49,44,35,99,65,22,30.12,30.03,6,1,9,0.00
2013-10-8,66,64,55,50,49,46,71,60,56,30.06,29.99,5,2,11,0.00
2013-10-9,84,66,54,56,52,49,87,63,37,30.06,29.99,6,2,12,0.00
2013-10-15,57,50,47,57,44,39,99,79,67,30.10,29.85,15,7,25,0.00
2013-10-16,66,49,40,44,40,23,94,73,23,30.11,30.00,7,4,11,0.00
2013-10-17,64,47,35,44,40,34,99,78,46,30.09,29.93,12,4,17,0.00
2013-10-18,54,44,37,41,35,30,91,73,40,30.17,30.05,7,2,10,0.00
2013-10-19,66,46,32,42,35,29,96,70,33,30.04,29.86,13,2,17,0.00
2013-10-20,69,53,43,45,42,38,93,68,36,30.06,29.76,10,3,14,0.00
2013-10-21,56,44,33,42,36,32,99,78,47,30.14,30.01,6,2,8,0.00
2013-10-22,51,45,38,46,40,37,99,83,71,30.11,29.90,11,2,14,0.00